User: anonymous   Login
Location: Albany
(35.0000°S, 118.0000°E)
Time: 20:31:39
(UTC-04:00)
Language:

Atlas Centaur 2 - Orbit

View from above orbital plane
View from above orbital plane
View from above satellite
View from above satellite

Ground track
Ground track

The orbit data is extracted from the following two-line orbital elements,

1 00694U 63047A   17234.23551268  .00000281  00000-0  20446-4 0  9999
2 00694  30.3593 161.4727 0587995 244.5389 109.3256 14.02117701691994
Epoch (UTC): 22 August 2017 05:39:08
Eccentricity: 0.0587995
inclination: 30.3593°
perigee height: 459 km
apogee height: 1313 km
right ascension of ascending node: 161.4727°
argument of perigee: 244.5389°
revolutions per day: 14.02117701
mean anomaly at epoch: 109.3256°
orbit number at epoch: 69199

The dashed part of the orbit path shows where the satellite is in the earth's shadow,  

DLR